Temp
21 21 22 23 27 28 27 27 28 27 27 28 28 28 26 25 25 26 20 21 21 21 20 20 21 21 22 21 22 21 22 22 22 22 22 22 22 22 21 21 21 21 21 21 21 21 21 21 21
22 22 22 25 29 29 28 29 28 28 28 28 27 27 26 24 23 21 21 21 21 21 20 21 22 22 21 22 22 22 22 22 22 22 21 21 21 21 21 21 21 21 21 21 21 21 21 21 21
23 22 25 27 28 29 28 29 28 27 28 28 26 26 25 23 22 22 21 21 21 21 21 21 21 21 22 22 22 22 22 22 22 21 21 21 21 21 21 21 21 21 20 21 21 21 21 21 21
23 25 25 29 29 28 29 29 28 28 28 27 27 25 24 23 23 22 21 21 21 21 21 21 21 21 21 22 22 22 22 22 22 21 21 21 21 21 21 21 20 21 21 21 21 21 22 22 22
23 25 28 30 29 29 29 29 29 28 27 27 27 24 23 22 21 21 21 21 22 21 21 21 21 21 21 21 22 22 22 22 21 21 21 21 21 21 21 21 20 21 22 22 22 22 22 22 22
26 26 30 29 29 29 29 29 28 28 27 26 26 25 22 21 22 21 21 22 22 22 21 21 21 21 22 22 22 22 22 21 21 21 21 21 22 21 21 21 21 21 22 23 23 23 23 23 23
27 27 28 29 29 29 29 29 28 27 27 26 26 24 22 22 21 21 21 21 22 22 21 21 21 21 22 22 22 22 22 21 21 21 21 22 21 21 22 22 22 23 23 23 23 23 24 24 23
26 27 29 29 29 29 29 29 28 29 27 27 27 24 22 23 21 21 21 21 21 21 21 21 21 21 22 21 22 22 22 22 22 22 22 23 23 23 23 23 23 23 24 24 24 24 24 24 24
25 29 29 29 29 29 29 28 29 28 28 27 26 27 25 22 22 22 21 21 21 20 21 21 21 22 22 21 22 22 22 22 22 22 23 23 23 23 23 24 24 24 24 24 24 25 25 25 25
27 29 30 31 31 30 30 29 28 28 28 26 24 24 23 22 22 23 23 23 22 21 21 20 22 22 21 22 21 21 21 22 22 23 24 24 24 24 24 24 25 25 25 25 25 25 25 25 25
27 29 29 31 31 31 29 29 29 29 28 27 25 24 23 23 23 23 23 23 22 22 21 21 22 22 21 21 22 22 22 22 22 24 24 24 24 25 24 25 25 25 26 25 25 25 25 25 25
30 29 30 31 31 30 30 30 28 29 29 28 27 25 24 24 23 23 23 22 22 22 22 21 22 21 22 22 22 22 22 22 22 23 24 24 24 24 24 24 25 25 26 26 26 25 26 26 26
30 30 31 31 31 31 30 29 29 27 27 28 26 25 25 24 23 23 23 22 22 22 22 21 22 21 22 23 22 22 22 22 23 24 24 25 25 25 25 25 26 26 26 25 25 26 26 27 26
29 30 31 30 30 30 29 28 29 26 27 26 26 26 25 25 24 24 23 23 22 22 22 21 21 21 22 23 23 23 23 23 24 24 25 25 25 25 25 25 25 25 26 26 26 26 27 26 26
30 31 31 30 30 29 30 28 28 27 27 27 26 26 25 25 24 24 24 23 23 22 22 22 22 22 23 23 23 23 24 23 24 24 25 25 25 25 25 26 25 25 26 26 26 26 26 26 27
30 30 30 30 31 29 31 29 28 27 28 27 27 26 26 26 25 25 24 23 23 23 22 22 22 22 24 24 24 23 23 24 23 24 25 25 25 25 25 25 25 26 25 25 25 25 26 26 27
29 30 30 30 31 30 30 28 27 28 28 27 27 27 27 26 26 25 24 24 24 23 22 22 22 22 22 24 24 24 24 23 23 24 24 25 25 25 25 25 25 25 25 25 26 25 25 26 26
31 31 30 31 31 30 30 29 28 28 28 28 28 27 27 27 27 26 25 25 24 23 22 23 23 22 24 24 24 23 23 24 24 24 24 25 25 25 25 24 25 25 24 25 25 26 25 25 26
32 32 32 31 31 31 31 29 28 28 28 28 28 27 28 28 28 27 26 25 24 24 23 23 23 23 23 22 23 23 23 24 24 25 25 25 25 25 25 24 24 24 24 25 25 25 25 26 25
31 32 32 32 31 31 30 30 29 29 29 29 29 29 28 29 28 27 26 26 25 24 24 23 23 24 24 23 22 23 23 24 24 24 25 25 25 25 25 25 24 24 24 24 24 25 25 25 25
32 32 32 32 30 30 30 30 29 29 29 29 29 29 29 30 29 28 27 26 26 25 24 24 25 24 24 23 22 23 23 24 24 24 24 25 26 25 25 25 25 25 24 24 24 24 24 26 25
33 32 32 31 32 32 31 33 29 29 29 28 28 28 29 29 29 29 27 26 26 26 25 24 23 24 24 24 23 23 24 24 25 24 24 24 25 25 25 25 25 25 24 24 24 24 23 23 25
32 31 31 30 31 32 30 32 30 28 29 29 29 27 28 29 29 29 28 27 26 25 25 24 23 23 23 24 24 23 23 24 24 23 23 23 24 25 25 25 25 25 25 25 25 25 24 24 24
29 31 29 29 31 32 28 30 30 28 26 27 28 29 27 27 27 27 26 25 24 24 23 24 22 24 24 24 24 24 23 23 23 23 23 24 24 24 23 24 25 25 25 26 26 25 24 24 23
31 33 32 31 31 32 26 28 28 26 25 26 26 29 27 26 27 26 26 26 25 25 24 24 23 22 23 24 24 24 24 24 23 22 23 23 24 24 24 24 24 24 24 25 25 25 25 23 23
29 33 32 30 31 30 26 28 27 24 25 25 26 28 27 26 27 26 26 25 24 23 23 23 23 23 22 22 22 22 21 22 22 22 22 22 23 23 23 23 22 23 24 25 25 24 23 23 23
28 31 28 28 25 29 27 26 26 25 23 25 25 26 25 24 25 24 24 22 21 20 21 20 20 21 21 21 22 22 21 21 21 20 21 21 21 22 22 22 21 22 22 23 23 24 24 23 23
30 27 30 28 28 28 27 26 27 25 23 24 24 23 23 23 24 23 21 20 20 19 19 20 21 21 21 21 22 22 22 22 22 21 21 21 21 21 21 21 21 22 22 22 22 23 23 22 23
29 29 25 27 27 29 28 27 24 22 22 22 22 22 22 22 20 19 19 17 17 17 18 18 19 20 20 21 21 22 22 22 22 22 21 21 21 21 21 21 20 21 21 22 22 22 23 23 23
27 27 28 30 27 25 27 26 23 22 23 23 20 20 19 18 18 17 16 16 16 16 17 17 17 18 17 17 18 18 19 19 19 20 20 20 20 20 20 21 21 20 20 21 22 22 22 23 23
Height
776 777 776 777 790 786 806 806 792 804 805 795 799 804 811 815 818 829 829 830 833 835 837 838 839 840 841 841 842 842 842 843 843 843 844 844 844 845 846 845 845 845 846 846 846 846 847 847 848
777 777 777 775 789 801 809 794 801 797 796 796 801 805 811 822 820 825 829 832 835 837 839 840 841 842 842 843 844 845 845 845 846 847 847 848 848 848 848 847 847 848 848 848 849 850 850 850 851
777 778 777 783 793 801 806 794 795 796 794 796 805 806 813 824 825 827 829 833 837 839 841 842 843 844 845 846 846 847 848 848 848 850 850 850 850 851 850 849 849 849 850 851 851 852 853 853 853
777 777 778 789 797 797 795 793 793 798 796 797 801 816 819 824 826 829 832 835 838 841 842 844 845 847 847 848 849 850 850 850 851 852 852 853 852 852 852 851 851 851 852 853 854 854 855 855 855
777 777 788 792 796 793 790 790 792 799 801 804 803 821 824 829 829 831 835 838 840 842 844 846 847 848 849 850 851 851 851 853 853 854 855 854 854 854 853 853 853 854 854 855 856 856 856 856 856
780 781 792 802 800 796 792 789 794 800 804 808 811 816 830 830 831 834 837 839 841 843 846 849 849 850 852 853 853 854 855 855 856 857 857 857 856 856 855 855 855 856 856 857 857 858 858 857 857
782 787 799 798 801 799 796 788 797 802 805 810 809 821 830 831 834 836 838 841 843 845 847 850 851 853 853 854 855 856 857 858 858 859 859 858 859 858 858 858 858 859 859 860 859 859 859 859 858
782 785 796 797 803 805 793 794 796 798 808 805 808 824 833 830 834 836 839 842 844 846 849 851 853 854 855 856 857 858 858 859 860 861 861 861 861 861 861 861 861 861 861 861 861 861 861 861 860
782 791 803 800 799 799 792 799 796 798 804 806 810 813 822 830 834 837 840 843 845 847 849 851 853 854 855 858 859 859 860 861 861 862 862 863 863 863 864 864 863 863 863 862 862 862 862 863 862
784 792 794 782 783 792 792 795 799 805 808 815 817 820 826 831 834 837 840 842 844 847 849 852 854 854 857 859 859 861 862 863 863 863 864 865 865 864 865 865 864 863 862 862 863 863 863 863 864
784 791 784 779 778 782 793 798 797 805 813 812 816 822 827 831 835 838 840 842 844 847 850 852 854 855 857 860 861 862 863 864 865 865 866 867 868 867 867 866 865 864 863 864 864 864 863 863 864
785 781 779 778 777 785 793 794 802 802 804 805 812 819 825 830 834 836 840 843 844 847 849 852 854 856 859 860 861 863 864 864 866 866 867 868 869 869 868 868 867 866 866 865 865 865 864 863 863
781 780 775 777 781 785 789 799 802 809 805 807 817 823 827 831 834 837 840 843 846 849 850 853 855 858 859 861 862 864 865 866 867 867 868 869 869 869 869 869 868 868 868 867 867 865 863 862 863
781 779 779 782 785 789 797 802 801 812 810 814 819 824 828 831 835 837 839 842 846 849 851 854 857 859 861 862 863 865 866 867 868 869 869 870 870 870 870 870 869 869 869 868 868 866 864 863 863
781 788 783 789 790 796 792 811 810 809 812 817 821 825 829 832 835 837 840 843 846 849 852 854 857 859 861 863 865 866 867 869 869 870 870 871 871 871 871 871 871 870 870 869 869 867 866 865 865
791 792 807 794 791 797 795 819 811 810 812 818 822 826 829 831 834 837 840 843 845 848 851 854 857 859 861 863 865 867 868 869 870 870 870 871 871 871 871 871 871 871 871 870 870 869 868 866 865
799 811 808 803 789 796 800 816 811 809 813 818 822 825 828 830 834 837 840 842 845 847 850 853 855 859 861 863 865 866 867 868 869 870 870 871 871 871 871 871 871 871 871 871 870 870 868 868 866
806 807 804 802 794 795 804 808 809 810 812 816 819 823 826 828 829 833 837 841 844 847 850 852 854 858 860 863 865 866 867 867 868 868 869 870 871 871 871 871 871 871 871 871 870 869 869 868 867
788 795 799 793 788 796 801 807 808 809 812 817 818 821 823 824 827 832 835 839 843 846 847 850 853 855 858 861 864 865 866 867 866 867 868 868 869 870 870 870 869 869 870 870 869 868 868 867 866
789 797 797 792 788 792 801 805 804 805 806 808 813 817 820 821 824 828 832 836 839 842 845 848 850 853 856 859 861 863 864 865 865 865 866 867 868 868 869 869 869 869 869 868 868 867 867 866 865
792 794 795 794 794 795 799 808 811 806 807 809 810 812 815 817 819 824 830 832 836 839 841 844 847 849 853 856 859 861 862 863 863 864 864 864 865 865 866 866 867 867 867 867 866 866 865 865 865
793 785 787 794 796 810 801 817 815 809 811 810 814 815 816 816 819 822 826 829 831 833 839 842 845 847 850 853 857 859 860 861 862 863 863 863 863 863 862 863 863 863 864 864 864 865 864 864 864
794 786 792 797 801 805 815 816 814 809 813 811 810 816 816 815 817 819 821 824 828 833 836 838 841 845 848 850 853 856 858 859 860 860 859 859 859 859 860 859 859 859 859 859 860 861 860 861 862
789 793 801 805 805 819 828 821 821 820 823 816 808 808 815 818 820 822 825 827 829 831 835 838 839 841 845 847 850 851 853 855 856 855 855 855 855 856 855 855 855 854 854 854 855 856 856 857 857
789 791 816 823 823 822 830 831 824 821 817 813 808 803 812 816 820 822 825 826 827 828 832 834 837 840 841 844 846 848 849 851 851 851 851 851 851 851 850 849 849 848 848 848 849 849 850 851 852
799 791 811 840 831 824 829 830 828 823 815 811 803 800 808 816 820 822 825 827 830 832 834 832 837 838 839 843 845 847 849 850 849 848 847 846 846 845 844 842 842 841 841 841 842 843 843 844 845
803 804 808 823 843 829 830 831 823 822 824 814 811 811 816 822 823 826 830 831 833 837 838 838 841 844 843 841 841 843 844 848 847 845 843 842 841 840 838 836 835 835 834 834 834 835 835 837 838
789 803 812 818 841 841 836 836 826 829 832 823 821 824 824 825 826 830 834 840 838 842 840 844 844 844 843 845 845 845 846 845 846 842 841 840 838 835 833 831 829 829 829 828 828 828 827 828 829
802 805 821 816 825 825 834 830 831 835 832 830 828 826 829 830 834 838 839 842 841 844 846 849 845 844 844 844 845 846 846 845 842 839 838 836 834 831 829 826 824 822 822 822 822 820 819 819 819
801 807 803 806 831 830 821 833 831 833 829 828 834 837 839 840 842 844 845 847 847 849 849 851 852 849 847 846 846 845 844 841 839 837 834 833 830 827 825 822 820 818 816 815 814 813 812 811 811
Wind_Speed
8 4 1 1 1 4 5 6 12 13 12 4 10 2 7 7 3 8 11 11 17 16 12 11 13 13 14 14 14 14 14 16 16 16 14 13 14 14 13 14 14 14 14 14 15 15 15 14 14
6 4 1 1 4 9 5 6 14 9 9 16 10 9 5 5 5 11 12 15 17 15 13 12 14 13 14 13 14 13 14 14 14 13 13 13 13 15 13 13 14 15 13 14 13 13 13 13 11
5 1 0 2 3 7 6 6 9 10 13 9 6 9 4 4 9 13 10 18 17 15 13 12 13 11 14 13 13 13 13 13 12 13 13 13 14 14 13 12 12 12 12 12 12 12 12 11 9
1 1 2 3 9 6 5 11 17 12 9 5 12 9 6 6 12 7 19 19 17 15 12 12 12 11 11 11 12 13 12 12 13 12 13 13 12 12 13 12 12 11 11 12 11 11 10 10 9
3 0 3 5 10 8 10 15 10 8 5 7 2 8 6 5 11 20 18 18 18 15 12 11 11 11 9 10 12 13 11 12 12 12 12 13 14 15 12 12 11 11 11 11 10 9 9 10 10
2 1 3 5 6 7 9 9 10 9 8 10 12 11 5 9 18 18 16 16 15 15 12 10 9 10 10 9 12 11 11 10 11 11 12 14 14 14 14 13 12 11 11 10 9 8 9 10 11
2 2 3 6 7 5 7 7 9 9 11 8 9 8 7 13 14 16 16 15 14 13 12 10 9 8 8 8 10 9 8 9 9 10 12 12 13 14 16 16 14 12 10 9 8 7 9 11 12
2 1 5 4 6 5 6 3 11 10 8 10 7 6 10 17 16 16 16 15 13 12 11 10 8 8 9 7 9 7 6 8 8 9 10 10 12 14 15 14 12 10 8 6 5 6 8 9 11
1 2 4 4 8 7 11 7 4 6 12 6 3 13 17 21 19 18 16 14 12 11 11 11 10 10 10 7 5 4 6 6 7 7 8 9 9 10 10 10 9 6 4 3 3 4 6 7 9
1 3 2 3 7 11 12 11 7 8 11 9 15 19 23 20 18 17 15 15 13 13 13 13 11 12 9 7 6 5 4 4 5 6 7 8 9 10 10 10 10 7 3 2 3 4 5 6 4
1 2 3 3 9 17 13 12 4 15 8 9 19 19 20 19 16 14 13 13 15 16 16 14 14 14 11 7 6 4 4 4 5 6 6 6 6 8 9 12 12 13 10 7 6 5 4 5 5
3 2 1 5 11 14 14 12 10 4 2 14 19 21 19 16 15 15 13 12 15 16 17 16 16 13 11 7 5 5 5 5 4 4 3 4 5 8 11 11 14 13 12 10 10 8 8 7 7
4 5 6 9 13 13 12 8 11 6 9 18 19 18 15 14 13 11 11 11 12 14 15 16 19 13 12 9 8 8 5 4 4 3 2 3 6 9 10 12 13 13 13 10 13 12 13 12 8
4 5 7 9 13 11 10 8 6 6 15 19 17 15 13 13 14 13 13 13 12 12 14 15 16 15 13 11 10 8 6 4 4 3 2 2 4 7 9 10 11 12 15 13 14 15 15 13 8
4 8 8 8 8 5 15 7 3 15 17 17 16 13 12 13 14 12 13 14 14 13 13 17 18 17 15 12 10 8 5 4 3 4 4 1 3 6 7 8 10 11 14 14 14 14 12 11 10
4 1 3 5 7 7 5 3 10 16 18 16 15 12 12 12 14 13 13 14 16 16 16 17 16 17 18 15 12 9 7 6 5 5 6 4 4 5 6 8 9 11 11 12 12 12 12 13 12
1 1 4 6 5 8 6 5 14 18 16 15 14 13 12 11 13 14 15 14 15 17 18 18 18 16 15 15 13 11 10 8 7 8 9 8 7 7 8 9 11 13 10 10 11 10 11 12 13
4 3 4 5 9 9 8 5 15 17 17 16 15 14 13 13 16 18 18 17 16 17 16 20 20 18 19 16 15 12 11 11 11 12 11 11 10 10 10 10 13 13 9 9 10 11 9 9 12
3 2 2 2 7 9 9 7 15 17 15 14 14 14 13 14 16 16 17 17 17 18 18 20 22 23 20 15 13 13 13 10 10 13 15 14 13 13 12 11 12 12 9 10 10 9 9 10 11
10 7 7 1 6 8 7 6 12 18 19 17 16 15 15 14 11 16 18 19 20 21 20 21 22 23 24 18 14 11 10 10 10 10 14 15 15 16 15 15 12 11 11 12 10 10 8 9 9
4 8 5 3 8 3 6 4 10 12 12 13 14 14 14 15 15 13 17 21 20 21 23 24 27 25 25 21 17 16 15 14 14 14 14 15 16 17 17 17 18 16 14 13 11 10 8 11 10
5 1 6 11 10 3 3 1 3 6 15 16 13 12 14 14 12 11 15 19 23 24 20 21 23 26 24 23 19 16 16 15 15 14 15 19 20 19 17 17 17 17 14 16 15 12 11 9 12
4 5 5 4 4 3 3 4 3 2 8 13 15 15 14 11 11 14 17 20 20 17 18 18 19 19 22 21 23 18 17 17 16 14 15 17 20 21 20 19 20 20 19 17 20 19 15 12 13
10 6 5 3 1 5 2 3 3 5 7 7 9 14 13 9 3 2 4 8 10 10 13 12 15 20 21 22 23 25 25 22 18 16 16 16 15 17 19 23 24 24 23 23 20 21 22 20 15
2 5 2 4 6 6 2 4 4 9 8 10 14 13 16 12 5 6 4 10 13 12 11 12 13 11 14 18 21 22 23 24 24 20 19 18 19 19 20 23 25 25 26 26 24 24 22 22 19
2 2 5 6 6 2 3 3 3 7 6 7 6 12 15 13 9 9 6 5 3 2 4 5 5 5 16 10 10 11 12 14 16 16 16 19 21 23 25 27 26 26 26 27 27 22 20 19 21
5 3 3 5 2 3 2 3 5 6 9 7 8 12 12 10 11 11 14 15 16 15 14 12 8 7 6 8 6 2 12 10 8 10 12 14 17 21 24 23 23 25 24 25 25 23 24 21 21
1 8 3 1 6 6 3 2 1 7 7 4 9 8 10 10 9 12 18 17 18 17 16 14 11 10 11 9 9 6 4 7 7 7 8 11 13 16 18 20 22 24 24 23 22 23 23 22 24
4 3 5 4 2 3 4 3 2 1 3 4 7 8 9 11 13 12 17 17 19 18 19 14 15 15 15 14 13 12 12 13 14 13 12 13 15 15 16 17 19 21 23 23 24 25 25 25 24
2 3 2 4 5 0 3 3 2 3 6 11 13 12 14 15 14 16 17 16 17 16 16 15 13 12 14 15 14 14 16 17 16 17 17 17 17 17 17 16 17 19 23 25 25 26 26 26 27
Wind_Direction
144 151 139 246 121 98 86 80 123 135 147 150 161 167 102 49 27 100 140 138 140 130 121 107 103 101 105 101 107 98 100 99 94 94 93 91 86 85 86 86 82 84 86 89 89 90 89 93 91
122 114 223 60 82 101 81 125 137 145 128 123 103 111 70 77 64 118 134 147 141 130 121 112 111 105 104 111 106 102 101 95 95 88 86 85 89 86 78 80 85 83 87 93 91 90 88 86 84
123 11 293 58 75 80 106 124 124 121 141 141 110 63 64 57 116 138 142 143 138 127 120 117 114 107 115 110 108 107 98 98 90 86 80 72 72 76 80 79 81 84 89 89 89 86 82 76 68
73 121 97 69 77 70 97 121 128 129 109 65 119 77 80 80 132 137 140 141 137 131 124 124 123 117 113 112 110 104 95 91 87 81 79 76 77 77 79 76 77 84 95 94 91 86 75 60 48
31 20 62 82 65 79 107 126 125 125 100 113 54 96 86 65 116 131 140 143 141 139 132 129 132 124 120 113 107 98 92 89 87 82 79 77 70 68 76 73 75 87 100 98 93 80 64 46 41
72 324 85 77 81 89 105 120 103 105 108 111 107 105 74 126 130 138 144 146 146 143 136 133 138 130 117 119 122 108 94 91 87 85 81 75 76 74 72 72 76 91 102 100 91 74 55 41 42
49 65 91 100 114 109 124 117 113 115 126 107 134 105 123 148 139 140 145 145 147 148 143 140 143 133 119 119 112 103 101 94 90 86 81 78 74 71 72 74 76 83 88 87 78 59 42 43 42
104 232 113 105 139 104 127 89 125 112 97 112 137 138 153 154 145 136 138 145 149 156 153 150 149 139 130 120 122 118 111 99 92 89 86 82 77 76 74 66 69 71 71 65 51 33 37 40 36
267 72 97 130 159 140 144 124 97 111 128 80 75 139 137 145 143 140 140 147 157 164 165 160 160 151 143 134 132 119 112 110 110 99 92 83 72 67 60 65 59 49 37 27 19 16 17 19 17
8 85 110 175 167 156 152 141 124 141 133 92 98 111 136 146 151 149 156 163 172 174 178 171 165 160 148 150 148 132 116 109 106 107 97 82 72 53 45 38 31 21 8 345 327 337 340 0 4
95 79 331 314 167 147 139 141 114 150 158 146 141 141 149 155 158 159 167 172 174 174 176 175 173 171 168 160 156 143 137 124 112 114 100 88 63 45 33 27 33 50 51 37 23 5 337 324 325
108 73 141 121 145 145 144 138 125 146 147 157 151 152 153 162 166 167 168 169 170 169 171 176 180 174 176 172 165 157 143 134 123 126 95 75 44 39 40 44 44 42 40 44 34 14 7 354 348
113 38 72 137 134 129 127 122 121 54 105 140 142 148 157 160 165 171 168 166 170 176 173 178 181 185 186 182 179 174 161 149 151 143 101 58 39 32 34 42 37 35 29 26 15 4 356 343 334
21 41 71 122 127 132 119 120 121 117 133 135 148 156 163 164 172 173 178 174 175 177 179 180 188 196 196 190 185 183 176 180 169 169 143 70 27 21 20 23 22 22 19 17 12 10 5 357 355
58 102 85 116 131 116 122 131 111 148 152 150 157 163 171 174 176 186 184 183 180 183 182 187 191 197 202 200 193 195 203 218 217 210 192 222 338 354 358 360 1 2 4 6 8 14 12 14 17
56 45 121 140 157 148 222 120 145 159 161 167 165 171 183 189 190 188 197 193 189 183 190 188 194 200 200 203 205 216 224 235 244 245 245 252 284 321 326 334 342 337 349 358 6 9 6 4 4
104 165 200 165 172 157 208 134 163 167 173 175 176 182 190 194 202 202 200 202 197 195 192 196 199 204 211 213 218 224 232 248 260 256 256 257 270 296 313 316 323 324 334 346 353 359 6 0 359
183 199 190 213 181 177 183 120 165 176 177 183 185 190 196 201 209 204 204 202 202 199 202 201 205 212 210 217 229 241 244 251 259 255 252 255 271 279 288 306 307 305 315 327 340 347 352 354 354
175 213 239 232 174 179 195 165 177 178 189 187 193 194 201 209 210 210 204 201 203 204 200 207 210 214 214 218 224 237 246 255 259 245 246 255 262 273 281 290 299 289 292 303 319 336 340 337 346
236 255 267 213 165 210 176 191 178 187 196 192 193 200 207 215 207 208 208 205 206 205 206 210 215 217 217 217 223 230 247 260 260 257 256 263 265 267 271 284 293 289 284 285 294 308 325 324 339
207 230 205 159 143 111 157 196 176 202 202 210 212 206 211 216 218 213 206 208 209 212 209 212 217 218 221 220 227 238 251 258 259 262 264 266 270 267 269 274 286 288 287 281 283 292 304 313 320
120 34 152 147 166 180 319 134 112 197 206 206 210 215 216 221 227 223 211 210 212 216 216 216 221 223 226 228 230 234 236 247 255 263 272 276 275 270 268 272 277 284 281 280 282 283 284 292 302
106 76 79 137 117 175 92 245 56 42 215 216 210 213 230 228 227 221 216 215 217 213 215 217 221 226 226 231 234 238 245 251 262 272 281 283 274 269 269 271 274 275 276 282 283 284 281 279 280
140 98 76 79 133 236 44 267 118 21 329 295 261 212 211 214 221 291 240 217 207 200 211 214 220 232 234 240 239 244 250 251 260 266 270 278 278 275 272 272 273 274 271 269 275 285 279 275 269
170 170 210 225 218 254 5 204 57 342 339 307 289 220 186 187 162 113 148 202 202 194 199 209 224 223 231 243 245 248 255 264 265 266 272 276 282 281 279 280 280 271 270 269 271 272 278 267 262
125 243 231 246 238 203 128 216 56 4 2 344 337 168 156 146 121 97 92 73 95 148 198 196 233 230 280 259 260 273 285 281 277 282 280 281 282 283 281 278 272 270 271 266 268 271 269 265 260
135 176 37 114 59 225 144 129 222 46 26 48 96 135 126 110 96 81 84 76 70 66 64 68 80 77 70 56 19 299 317 290 286 282 284 287 289 288 286 281 276 272 265 264 261 261 262 263 260
14 131 166 112 181 227 165 208 271 354 4 71 101 101 90 86 95 100 87 72 72 63 61 51 52 47 41 39 35 23 5 341 327 330 313 315 317 315 302 292 281 275 271 265 260 260 260 258 259
144 149 66 106 300 230 193 172 358 57 69 100 78 72 80 90 84 79 74 64 53 46 38 24 24 20 11 4 353 345 336 330 331 328 324 323 321 323 321 311 298 282 277 273 267 260 257 252 255
66 99 186 241 186 115 304 134 46 92 114 113 98 86 88 83 76 67 57 54 51 39 27 9 15 12 2 352 340 323 314 313 310 308 309 309 308 311 315 315 312 304 292 275 270 265 261 257 255